TimeEST,TemperatureF,Dew PointF,Humidity,Sea Level PressureIn,VisibilityMPH,Wind Direction,Wind SpeedMPH,Gust SpeedMPH,PrecipitationIn,Events,Conditions,WindDirDegrees,DateUTC
12:54 AM,35.1,21.9,59,29.90,10.0,NW,6.9,-,N/A,,Overcast,310,2013-02-13 05:54:00
1:54 AM,35.1,19.9,54,29.92,10.0,WNW,4.6,-,N/A,,Overcast,300,2013-02-13 06:54:00
2:54 AM,34.0,21.0,59,29.92,10.0,WNW,3.5,-,N/A,,Overcast,300,2013-02-13 07:54:00
3:54 AM,34.0,19.9,56,29.91,10.0,West,5.8,-,N/A,,Overcast,280,2013-02-13 08:54:00
4:54 AM,32.0,21.0,64,29.90,10.0,Calm,Calm,-,N/A,,Overcast,0,2013-02-13 09:54:00
5:54 AM,27.0,19.9,75,29.89,10.0,West,3.5,-,N/A,,Clear,260,2013-02-13 10:54:00
6:54 AM,24.1,19.0,81,29.88,10.0,Calm,Calm,-,N/A,,Clear,0,2013-02-13 11:54:00
7:54 AM,24.1,19.0,81,29.90,10.0,Calm,Calm,-,N/A,,Clear,0,2013-02-13 12:54:00
8:54 AM,33.1,21.0,61,29.88,10.0,Calm,Calm,-,N/A,,Clear,0,2013-02-13 13:54:00
9:54 AM,36.0,19.9,52,29.86,10.0,Variable,4.6,-,N/A,,Clear,0,2013-02-13 14:54:00
10:54 AM,37.9,19.9,48,29.84,10.0,Calm,Calm,-,N/A,,Clear,0,2013-02-13 15:54:00
11:54 AM,37.9,19.9,48,29.85,10.0,ESE,3.5,-,N/A,,Clear,120,2013-02-13 16:54:00
12:54 PM,37.9,21.0,51,29.80,10.0,South,8.1,-,N/A,,Clear,190,2013-02-13 17:54:00
1:54 PM,39.9,21.0,47,29.76,10.0,Calm,Calm,-,N/A,,Clear,0,2013-02-13 18:54:00
2:54 PM,39.9,19.9,45,29.75,10.0,Calm,Calm,-,N/A,,Clear,0,2013-02-13 19:54:00
3:54 PM,39.9,21.0,47,29.73,10.0,Calm,Calm,-,N/A,,Clear,0,2013-02-13 20:54:00
4:54 PM,39.9,21.0,47,29.71,10.0,Calm,Calm,-,N/A,,Clear,0,2013-02-13 21:54:00
5:54 PM,36.0,26.1,67,29.71,10.0,Calm,Calm,-,N/A,,Scattered Clouds,0,2013-02-13 22:54:00
6:54 PM,35.1,27.0,72,29.70,10.0,North,3.5,-,N/A,,Overcast,360,2013-02-13 23:54:00
7:54 PM,36.0,25.0,64,29.70,10.0,NNE,4.6,-,N/A,,Overcast,30,2013-02-14 00:54:00
8:54 PM,37.0,21.9,54,29.71,10.0,Calm,Calm,-,N/A,,Overcast,0,2013-02-14 01:54:00
9:54 PM,35.1,28.0,76,29.72,5.0,North,6.9,-,0.00,Snow,Light Snow,350,2013-02-14 02:54:00
10:10 PM,35.6,28.4,75,29.71,5.0,NNW,4.6,-,0.00,Snow,Light Snow,340,2013-02-14 03:10:00
10:25 PM,33.8,30.2,87,29.71,2.5,North,4.6,-,0.00,Snow,Light Snow,350,2013-02-14 03:25:00
10:54 PM,33.1,30.9,92,29.72,3.0,NNE,4.6,-,0.01,Snow,Light Snow,20,2013-02-14 03:54:00
11:22 PM,33.8,30.2,87,29.70,5.0,NNE,4.6,-,0.00,Snow,Light Snow,30,2013-02-14 04:22:00
11:54 PM,33.1,28.9,85,29.72,10.0,NNE,3.5,-,0.00,,Overcast,30,2013-02-14 04:54:00